Location: Bothwell
(42.3833°S, 147.0000°E)
Time: 03:11:12
(UTC+11:00)

BUGSAT 1 - Pass Details

Date: 27 September 2022
Orbit: 554 x 595 km, 98.1° (Epoch: 29 November)

Event Time Altitude Azimuth Distance (km) Brightness Sun altitude
Rises 04:45:40 0° 37° (NE) 2,831 ? -13.2°
Reaches altitude 10° 04:47:57 10° 45° (NE) 1,942 ? -12.8°
Maximum altitude 04:51:47 35° 110° (ESE) 998 ? -12.1°
Drops below altitude 10° 04:55:40 10° 175° (S) 1,973 ? -11.4°
Sets 04:58:00 0° 184° (S) 2,884 ? -11.0°
